Weather History for Valdosta Regional, GA

Change the Weather History Date:

Friday, February 8, 2013

  Actual Average Record
Temperature  
Mean Temperature 56 °F 53 °F  
Max Temperature 65 °F 65 °F 65 °F (2014)
Min Temperature 47 °F 40 °F 45 °F (2014)
Degree Days  
Heating Degree Days 9 12  
Month to date heating degree days 75 105  
Since 1 July heating degree days 704 1174  
Growing Degree Days 8 (Base 50)    
Moisture  
Dew Point 50 °F    
Average Humidity 78    
Maximum Humidity 89    
Minimum Humidity 67    
Precipitation  
Precipitation 0.00 in - 0.05 in (2014)
Month to date precipitation 0.19  
Year to date precipitation 0.95  
Sea Level Pressure  
Sea Level Pressure 30.04 in    
Wind  
Wind Speed 2 mph (NW)    
Max Wind Speed 8 mph    
Max Gust Speed 12 mph    
Visibility 9 miles    
Events      
T = Trace of Precipitation, MM = Missing Value Source: NWS Daily Summary

Daily Weather History Graph

Daily Weather History Graph

Search for Another Location

Airport:

Trip Planner

Search our weather history database for the weather conditions in past years. The results will help you decide how hot, cold, wet, or windy it might be!

Date:

Astronomy

Feb. 08, 2013 Rise Set
Actual Time 7:19 AM EST 6:15 PM EST
Civil Twilight 6:54 AM EST 6:40 PM EST
Nautical Twilight 6:26 AM EST 7:08 PM EST
Astronomical Twilight 5:57 AM EST 7:37 PM EST
Moon 5:44 AM EST (2/8) 4:49 PM EST (2/8)
Length of Visible Light 11h 45m
Length of Day
10h 55m
Waning Crescent, 3% of the Moon is Illuminated
Feb 8
Waning Crescent
Feb 10
New
Feb 17
First Quarter
Feb 25
Full
Mar 4
Last Quarter

Hourly Weather History & Observations

Time (EST) Temp. Dew Point Humidity Pressure Visibility Wind Dir Wind Speed Gust Speed Precip Events Conditions
12:53 AM 55.9 °F 51.1 °F 84% 29.95 in 10.0 mi Calm Calm - N/A   Overcast
1:53 AM 55.9 °F 51.1 °F 84% 29.95 in 10.0 mi Variable 3.5 mph - N/A   Overcast
2:53 AM 55.0 °F 51.1 °F 86% 29.95 in 10.0 mi Calm Calm - N/A   Overcast
3:53 AM 54.0 °F 50.0 °F 86% 29.96 in 10.0 mi Variable 3.5 mph - N/A   Overcast
4:53 AM 54.0 °F 50.0 °F 86% 29.96 in 10.0 mi Variable 3.5 mph - N/A   Overcast
5:53 AM 54.0 °F 48.9 °F 83% 29.99 in 10.0 mi Calm Calm - N/A   Overcast
6:53 AM 54.0 °F 50.0 °F 86% 30.00 in 9.0 mi Variable 3.5 mph - N/A   Overcast
7:53 AM 54.0 °F 50.0 °F 86% 30.03 in 6.0 mi Variable 3.5 mph - N/A   Overcast
8:04 AM 53.6 °F 50.0 °F 88% 30.01 in 5.0 mi Variable 3.5 mph - N/A   Overcast
8:53 AM 55.0 °F 51.1 °F 86% 30.05 in 6.0 mi Variable 3.5 mph - N/A   Overcast
9:53 AM 55.9 °F 51.1 °F 84% 30.08 in 5.0 mi Calm Calm - N/A   Haze
10:17 AM 55.4 °F 51.8 °F 88% 30.05 in 7.0 mi Calm Calm - N/A   Overcast
10:53 AM 57.0 °F 51.1 °F 81% 30.08 in 10.0 mi Calm Calm - N/A   Overcast
12:25 PM 59.0 °F 51.8 °F 77% 30.05 in 10.0 mi Variable 4.6 mph - N/A   Overcast
12:53 PM 59.0 °F 51.1 °F 75% 30.07 in 10.0 mi Variable 4.6 mph - N/A   Overcast
1:53 PM 60.1 °F 51.1 °F 72% 30.06 in 10.0 mi Calm Calm - N/A   Overcast
2:35 PM 60.8 °F 51.8 °F 72% 30.04 in 10.0 mi Variable 3.5 mph - N/A   Overcast
2:53 PM 62.1 °F 51.1 °F 67% 30.06 in 10.0 mi Calm Calm - N/A   Mostly Cloudy
3:53 PM 63.0 °F 51.1 °F 65% 30.05 in 10.0 mi Variable 3.5 mph - N/A   Mostly Cloudy
4:00 PM 64.4 °F 51.8 °F 64% 30.03 in 10.0 mi NW 6.9 mph - N/A   Scattered Clouds
4:49 PM 64.4 °F 51.8 °F 64% 30.04 in 10.0 mi Variable 3.5 mph - N/A   Mostly Cloudy
4:53 PM 63.0 °F 52.0 °F 67% 30.06 in 10.0 mi Variable 4.6 mph - N/A   Mostly Cloudy
5:53 PM 61.0 °F 51.1 °F 70% 30.08 in 10.0 mi Variable 3.5 mph - N/A   Mostly Cloudy
7:53 PM 53.1 °F 48.0 °F 83% 30.09 in 10.0 mi Calm Calm - N/A   Clear
8:53 PM 51.1 °F 46.9 °F 86% 30.11 in 10.0 mi Calm Calm - N/A   Clear
9:53 PM 52.0 °F 48.9 °F 89% 30.13 in 10.0 mi Calm Calm - N/A   Clear
10:53 PM 52.0 °F 48.0 °F 86% 30.14 in 10.0 mi Calm Calm - N/A   Clear
11:53 PM 46.9 °F 43.0 °F 86% 30.15 in 6.0 mi Calm Calm - N/A   Clear